Year,Month,Day,Hour,Minute,Value (Times are PST for windgust in km/hr)
2011,07,05,00,04,1.60
2011,07,05,00,05,1.60
2011,07,05,02,06,1.60
2011,07,05,02,58,1.60
2011,07,05,03,20,1.60
2011,07,05,03,21,1.60
2011,07,05,03,22,1.60
2011,07,05,03,23,3.20
2011,07,05,03,24,3.20
2011,07,05,03,25,3.20
2011,07,05,03,26,1.60
2011,07,05,03,27,1.60
2011,07,05,03,46,1.60
2011,07,05,05,27,1.60
2011,07,05,05,28,1.60
2011,07,05,07,49,1.60
2011,07,05,07,50,3.20
2011,07,05,07,51,3.20
2011,07,05,07,52,1.60
2011,07,05,07,53,1.60
2011,07,05,07,54,1.60
2011,07,05,07,55,1.60
2011,07,05,07,56,1.60
2011,07,05,07,57,1.60
2011,07,05,07,58,1.60
2011,07,05,07,59,3.20
2011,07,05,08,00,3.20
2011,07,05,08,01,1.60
2011,07,05,08,02,1.60
2011,07,05,08,03,3.20
2011,07,05,08,04,3.20
2011,07,05,08,05,1.60
2011,07,05,08,06,1.60
2011,07,05,08,07,3.20
2011,07,05,08,08,1.60
2011,07,05,08,09,1.60
2011,07,05,08,10,1.60
2011,07,05,08,11,3.20
2011,07,05,08,12,1.60
2011,07,05,08,13,1.60
2011,07,05,08,14,1.60
2011,07,05,08,17,1.60
2011,07,05,08,18,1.60
2011,07,05,08,19,1.60
2011,07,05,08,23,1.60
2011,07,05,08,24,1.60
2011,07,05,08,27,1.60
2011,07,05,08,28,1.60
2011,07,05,08,29,1.60
2011,07,05,08,30,1.60
2011,07,05,08,31,1.60
2011,07,05,08,32,1.60
2011,07,05,08,33,1.60
2011,07,05,08,34,1.60
2011,07,05,08,35,1.60
2011,07,05,08,39,1.60
2011,07,05,08,40,4.80
2011,07,05,08,41,4.80
2011,07,05,08,42,3.20
2011,07,05,08,44,3.20
2011,07,05,08,45,4.80
2011,07,05,08,46,1.60
2011,07,05,08,47,1.60
2011,07,05,08,48,1.60
2011,07,05,08,49,3.20
2011,07,05,08,50,1.60
2011,07,05,08,51,1.60
2011,07,05,08,52,1.60
2011,07,05,08,53,3.20
2011,07,05,08,54,3.20
2011,07,05,08,55,1.60
2011,07,05,08,56,1.60
2011,07,05,08,57,1.60
2011,07,05,08,59,1.60
2011,07,05,09,00,4.80
2011,07,05,09,01,3.20
2011,07,05,09,02,4.80
2011,07,05,09,03,3.20
2011,07,05,09,04,6.40
2011,07,05,09,05,3.20
2011,07,05,09,06,3.20
2011,07,05,09,07,3.20
2011,07,05,09,08,3.20
2011,07,05,09,09,4.80
2011,07,05,09,10,4.80
2011,07,05,09,11,6.40
2011,07,05,09,12,3.20
2011,07,05,09,13,4.80
2011,07,05,09,14,3.20
2011,07,05,09,15,6.40
2011,07,05,09,16,4.80
2011,07,05,09,17,3.20
2011,07,05,09,18,4.80
2011,07,05,09,19,3.20
2011,07,05,09,20,3.20
2011,07,05,09,21,1.60
2011,07,05,09,22,6.40
2011,07,05,09,23,4.80
2011,07,05,09,24,1.60
2011,07,05,09,25,1.60
2011,07,05,09,27,3.20
2011,07,05,09,28,4.80
2011,07,05,09,29,1.60
2011,07,05,09,30,4.80
2011,07,05,09,31,1.60
2011,07,05,09,32,8.10
2011,07,05,09,33,8.10
2011,07,05,09,34,1.60
2011,07,05,09,35,4.80
2011,07,05,09,36,4.80
2011,07,05,09,37,1.60
2011,07,05,09,38,3.20
2011,07,05,09,39,3.20
2011,07,05,09,40,4.80
2011,07,05,09,41,3.20
2011,07,05,09,42,1.60
2011,07,05,09,43,4.80
2011,07,05,09,44,4.80
2011,07,05,09,45,3.20
2011,07,05,09,46,6.40
2011,07,05,09,47,8.10
2011,07,05,09,48,3.20
2011,07,05,09,49,3.20
2011,07,05,09,50,8.10
2011,07,05,09,51,4.80
2011,07,05,09,52,3.20
2011,07,05,09,53,4.80
2011,07,05,09,54,11.30
2011,07,05,09,55,8.10
2011,07,05,09,56,8.10
2011,07,05,09,57,9.60
2011,07,05,09,58,14.50
2011,07,05,09,59,14.50
2011,07,05,10,00,16.10
2011,07,05,10,01,11.30
2011,07,05,10,02,9.60
2011,07,05,10,03,14.50
2011,07,05,10,04,14.50
2011,07,05,10,05,11.30
2011,07,05,10,06,14.50
2011,07,05,10,07,16.10
2011,07,05,10,08,12.90
2011,07,05,10,09,11.30
2011,07,05,10,10,11.30
2011,07,05,10,11,9.60
2011,07,05,10,12,6.40
2011,07,05,10,13,4.80
2011,07,05,10,14,9.60
2011,07,05,10,15,3.20
2011,07,05,10,16,6.40
2011,07,05,10,17,1.60
2011,07,05,10,18,4.80
2011,07,05,10,19,8.10
2011,07,05,10,20,6.40
2011,07,05,10,21,6.40
2011,07,05,10,22,11.30
2011,07,05,10,23,11.30
2011,07,05,10,24,11.30
2011,07,05,10,25,8.10
2011,07,05,10,26,6.40
2011,07,05,10,27,1.60
2011,07,05,10,28,4.80
2011,07,05,10,29,3.20
2011,07,05,10,30,6.40
2011,07,05,10,31,8.10
2011,07,05,10,32,9.60
2011,07,05,10,33,8.10
2011,07,05,10,34,9.60
2011,07,05,10,35,8.10
2011,07,05,10,36,6.40
2011,07,05,10,37,6.40
2011,07,05,10,38,8.10
2011,07,05,10,39,9.60
2011,07,05,10,40,6.40
2011,07,05,10,41,3.20
2011,07,05,10,42,9.60
2011,07,05,10,43,9.60
2011,07,05,10,44,9.60
2011,07,05,10,45,6.40
2011,07,05,10,46,6.40
2011,07,05,10,47,6.40
2011,07,05,10,48,8.10
2011,07,05,10,49,8.10
2011,07,05,10,50,8.10
2011,07,05,10,51,6.40
2011,07,05,10,52,6.40
2011,07,05,10,53,4.80
2011,07,05,10,54,4.80
2011,07,05,10,55,4.80
2011,07,05,10,56,9.60
2011,07,05,10,57,4.80
2011,07,05,10,58,4.80
2011,07,05,10,59,4.80
2011,07,05,11,00,3.20
2011,07,05,11,01,3.20
2011,07,05,11,02,9.60
2011,07,05,11,03,3.20
2011,07,05,11,04,6.40
2011,07,05,11,05,3.20
2011,07,05,11,06,3.20
2011,07,05,11,07,4.80
2011,07,05,11,08,4.80
2011,07,05,11,09,3.20
2011,07,05,11,10,6.40
2011,07,05,11,11,6.40
2011,07,05,11,12,9.60
2011,07,05,11,13,6.40
2011,07,05,11,14,3.20
2011,07,05,11,15,1.60
2011,07,05,11,16,4.80
2011,07,05,11,17,9.60
2011,07,05,11,18,9.60
2011,07,05,11,19,11.30
2011,07,05,11,20,8.10
2011,07,05,11,21,3.20
2011,07,05,11,22,6.40
2011,07,05,11,23,3.20
2011,07,05,11,24,3.20
2011,07,05,11,25,4.80
2011,07,05,11,26,3.20
2011,07,05,11,27,3.20
2011,07,05,11,28,1.60
2011,07,05,11,29,3.20
2011,07,05,11,30,4.80
2011,07,05,11,31,3.20
2011,07,05,11,32,4.80
2011,07,05,11,33,8.10
2011,07,05,11,34,3.20
2011,07,05,11,35,1.60
2011,07,05,11,36,3.20
2011,07,05,11,37,6.40
2011,07,05,11,38,3.20
2011,07,05,11,39,4.80
2011,07,05,11,40,9.60
2011,07,05,11,41,3.20
2011,07,05,11,42,6.40
2011,07,05,11,43,3.20
2011,07,05,11,44,4.80
2011,07,05,11,45,3.20
2011,07,05,11,46,4.80
2011,07,05,11,47,6.40
2011,07,05,11,48,4.80
2011,07,05,11,49,9.60
2011,07,05,11,50,8.10
2011,07,05,11,51,8.10
2011,07,05,11,52,11.30
2011,07,05,11,53,11.30
2011,07,05,11,54,11.30
2011,07,05,11,55,11.30
2011,07,05,11,56,9.60
2011,07,05,11,57,8.10
2011,07,05,11,58,6.40
2011,07,05,11,59,4.80
2011,07,05,12,00,6.40
2011,07,05,12,01,11.30
2011,07,05,12,02,11.30
2011,07,05,12,03,6.40
2011,07,05,12,04,6.40
2011,07,05,12,05,4.80
2011,07,05,12,06,6.40
2011,07,05,12,07,4.80
2011,07,05,12,08,3.20
2011,07,05,12,09,4.80
2011,07,05,12,10,1.60
2011,07,05,12,11,3.20
2011,07,05,12,12,1.60
2011,07,05,12,13,4.80
2011,07,05,12,14,8.10
2011,07,05,12,15,6.40
2011,07,05,12,16,1.60
2011,07,05,12,17,6.40
2011,07,05,12,18,6.40
2011,07,05,12,19,6.40
2011,07,05,12,20,8.10
2011,07,05,12,21,6.40
2011,07,05,12,22,4.80
2011,07,05,12,23,4.80
2011,07,05,12,24,4.80
2011,07,05,12,25,6.40
2011,07,05,12,26,4.80
2011,07,05,12,27,1.60
2011,07,05,12,28,4.80
2011,07,05,12,29,4.80
2011,07,05,12,30,4.80
2011,07,05,12,31,6.40
2011,07,05,12,32,4.80
2011,07,05,12,33,3.20
2011,07,05,12,34,8.10
2011,07,05,12,35,4.80
2011,07,05,12,36,4.80
2011,07,05,12,37,11.30
2011,07,05,12,38,6.40
2011,07,05,12,39,4.80
2011,07,05,12,40,4.80
2011,07,05,12,41,6.40
2011,07,05,12,42,4.80
2011,07,05,12,43,4.80
2011,07,05,12,44,8.10
2011,07,05,12,45,6.40
2011,07,05,12,46,8.10
2011,07,05,12,47,3.20
2011,07,05,12,48,4.80
2011,07,05,12,49,3.20
2011,07,05,12,50,6.40
2011,07,05,12,51,14.50
2011,07,05,12,52,14.50
2011,07,05,12,53,14.50
2011,07,05,12,54,9.60
2011,07,05,12,55,8.10
2011,07,05,12,56,11.30
2011,07,05,12,57,9.60
2011,07,05,12,58,11.30
2011,07,05,12,59,11.30
2011,07,05,13,00,11.30
2011,07,05,13,01,8.10
2011,07,05,13,02,9.60
2011,07,05,13,03,9.60
2011,07,05,13,04,6.40
2011,07,05,13,05,11.30
2011,07,05,13,06,11.30
2011,07,05,13,07,11.30
2011,07,05,13,08,14.50
2011,07,05,13,09,8.10
2011,07,05,13,10,9.60
2011,07,05,13,11,3.20
2011,07,05,13,12,3.20
2011,07,05,13,13,4.80
2011,07,05,13,14,4.80
2011,07,05,13,15,3.20
2011,07,05,13,16,1.60
2011,07,05,13,17,3.20
2011,07,05,13,18,4.80
2011,07,05,13,19,6.40
2011,07,05,13,20,8.10
2011,07,05,13,21,8.10
2011,07,05,13,22,6.40
2011,07,05,13,23,4.80
2011,07,05,13,24,9.60
2011,07,05,13,25,8.10
2011,07,05,13,26,14.50
2011,07,05,13,27,9.60
2011,07,05,13,28,11.30
2011,07,05,13,29,9.60
2011,07,05,13,30,4.80
2011,07,05,13,31,3.20
2011,07,05,13,32,8.10
2011,07,05,13,33,4.80
2011,07,05,13,34,9.60
2011,07,05,13,35,11.30
2011,07,05,13,36,9.60
2011,07,05,13,37,9.60
2011,07,05,13,38,12.90
2011,07,05,13,39,12.90
2011,07,05,13,40,11.30
2011,07,05,13,41,16.10
2011,07,05,13,42,14.50
2011,07,05,13,43,11.30
2011,07,05,13,44,12.90
2011,07,05,13,45,12.90
2011,07,05,13,46,16.10
2011,07,05,13,47,11.30
2011,07,05,13,48,9.60
2011,07,05,13,49,9.60
2011,07,05,13,50,14.50
2011,07,05,13,51,11.30
2011,07,05,13,52,14.50
2011,07,05,13,53,14.50
2011,07,05,13,54,11.30
2011,07,05,13,55,9.60
2011,07,05,13,56,8.10
2011,07,05,13,57,6.40
2011,07,05,13,58,14.50
2011,07,05,13,59,14.50
2011,07,05,14,00,11.30
2011,07,05,14,01,16.10
2011,07,05,14,02,9.60
2011,07,05,14,03,14.50
2011,07,05,14,04,14.50
2011,07,05,14,05,9.60
2011,07,05,14,06,3.20
2011,07,05,14,07,1.60
2011,07,05,14,08,3.20
2011,07,05,14,09,6.40
2011,07,05,14,10,1.60
2011,07,05,14,11,6.40
2011,07,05,14,12,11.30
2011,07,05,14,13,8.10
2011,07,05,14,14,8.10
2011,07,05,14,15,11.30
2011,07,05,14,16,9.60
2011,07,05,14,17,16.10
2011,07,05,14,18,14.50
2011,07,05,14,19,12.90
2011,07,05,14,20,12.90
2011,07,05,14,21,11.30
2011,07,05,14,22,8.10
2011,07,05,14,23,12.90
2011,07,05,14,24,11.30
2011,07,05,14,25,16.10
2011,07,05,14,26,14.50
2011,07,05,14,27,9.60
2011,07,05,14,28,11.30
2011,07,05,14,29,14.50
2011,07,05,14,30,12.90
2011,07,05,14,31,11.30
2011,07,05,14,32,9.60
2011,07,05,14,33,11.30
2011,07,05,14,34,14.50
2011,07,05,14,35,9.60
2011,07,05,14,36,14.50
2011,07,05,14,37,14.50
2011,07,05,14,38,8.10
2011,07,05,14,39,6.40
2011,07,05,14,40,14.50
2011,07,05,14,41,17.70
2011,07,05,14,42,9.60
2011,07,05,14,43,19.30
2011,07,05,14,44,9.60
2011,07,05,14,45,16.10
2011,07,05,14,46,16.10
2011,07,05,14,47,14.50
2011,07,05,14,48,19.30
2011,07,05,14,49,14.50
2011,07,05,14,50,16.10
2011,07,05,14,51,11.30
2011,07,05,14,52,3.20
2011,07,05,14,53,4.80
2011,07,05,14,54,8.10
2011,07,05,14,55,3.20
2011,07,05,14,56,4.80
2011,07,05,14,57,4.80
2011,07,05,14,58,3.20
2011,07,05,14,59,11.30
2011,07,05,15,00,14.50
2011,07,05,15,01,9.60
2011,07,05,15,02,11.30
2011,07,05,15,03,9.60
2011,07,05,15,04,8.10
2011,07,05,15,05,4.80
2011,07,05,15,06,9.60
2011,07,05,15,07,16.10
2011,07,05,15,08,16.10
2011,07,05,15,09,11.30
2011,07,05,15,10,11.30
2011,07,05,15,11,9.60
2011,07,05,15,12,8.10
2011,07,05,15,13,9.60
2011,07,05,15,14,11.30
2011,07,05,15,15,16.10
2011,07,05,15,16,9.60
2011,07,05,15,17,9.60
2011,07,05,15,18,9.60
2011,07,05,15,19,16.10
2011,07,05,15,20,11.30
2011,07,05,15,21,9.60
2011,07,05,15,22,17.70
2011,07,05,15,23,11.30
2011,07,05,15,24,16.10
2011,07,05,15,25,11.30
2011,07,05,15,26,11.30
2011,07,05,15,27,11.30
2011,07,05,15,28,14.50
2011,07,05,15,29,6.40
2011,07,05,15,30,11.30
2011,07,05,15,31,11.30
2011,07,05,15,32,8.10
2011,07,05,15,33,14.50
2011,07,05,15,34,14.50
2011,07,05,15,35,14.50
2011,07,05,15,36,11.30
2011,07,05,15,37,11.30
2011,07,05,15,38,6.40
2011,07,05,15,39,11.30
2011,07,05,15,40,11.30
2011,07,05,15,41,11.30
2011,07,05,15,42,9.60
2011,07,05,15,43,11.30
2011,07,05,15,44,8.10
2011,07,05,15,45,9.60
2011,07,05,15,46,4.80
2011,07,05,15,47,8.10
2011,07,05,15,48,6.40
2011,07,05,15,49,14.50
2011,07,05,15,50,11.30
2011,07,05,15,51,17.70
2011,07,05,15,52,16.10
2011,07,05,15,53,12.90
2011,07,05,15,54,14.50
2011,07,05,15,55,6.40
2011,07,05,15,56,11.30
2011,07,05,15,57,9.60
2011,07,05,15,58,6.40
2011,07,05,15,59,8.10
2011,07,05,16,00,8.10
2011,07,05,16,01,12.90
2011,07,05,16,02,9.60
2011,07,05,16,03,8.10
2011,07,05,16,04,17.70
2011,07,05,16,05,14.50
2011,07,05,16,06,16.10
2011,07,05,16,07,19.30
2011,07,05,16,08,17.70
2011,07,05,16,09,9.60
2011,07,05,16,10,8.10
2011,07,05,16,11,8.10
2011,07,05,16,12,17.70
2011,07,05,16,13,17.70
2011,07,05,16,14,11.30
2011,07,05,16,15,11.30
2011,07,05,16,16,14.50
2011,07,05,16,17,9.60
2011,07,05,16,18,11.30
2011,07,05,16,19,14.50
2011,07,05,16,20,14.50
2011,07,05,16,21,16.10
2011,07,05,16,22,11.30
2011,07,05,16,23,9.60
2011,07,05,16,24,9.60
2011,07,05,16,25,14.50
2011,07,05,16,26,11.30
2011,07,05,16,27,9.60
2011,07,05,16,28,11.30
2011,07,05,16,29,9.60
2011,07,05,16,30,9.60
2011,07,05,16,31,9.60
2011,07,05,16,32,11.30
2011,07,05,16,33,14.50
2011,07,05,16,34,14.50
2011,07,05,16,35,16.10
2011,07,05,16,36,16.10
2011,07,05,16,37,9.60
2011,07,05,16,38,14.50
2011,07,05,16,39,16.10
2011,07,05,16,40,11.30
2011,07,05,16,41,11.30
2011,07,05,16,42,11.30
2011,07,05,16,43,19.30
2011,07,05,16,44,14.50
2011,07,05,16,45,11.30
2011,07,05,16,46,4.80
2011,07,05,16,47,6.40
2011,07,05,16,48,16.10
2011,07,05,16,49,11.30
2011,07,05,16,50,8.10
2011,07,05,16,51,9.60
2011,07,05,16,52,11.30
2011,07,05,16,53,8.10
2011,07,05,16,54,16.10
2011,07,05,16,55,16.10
2011,07,05,16,56,17.70
2011,07,05,16,57,14.50
2011,07,05,16,58,11.30
2011,07,05,16,59,3.20
2011,07,05,17,00,9.60
2011,07,05,17,01,11.30
2011,07,05,17,02,9.60
2011,07,05,17,03,8.10
2011,07,05,17,04,9.60
2011,07,05,17,05,9.60
2011,07,05,17,06,9.60
2011,07,05,17,07,9.60
2011,07,05,17,08,16.10
2011,07,05,17,09,16.10
2011,07,05,17,10,17.70
2011,07,05,17,11,11.30
2011,07,05,17,12,11.30
2011,07,05,17,13,11.30
2011,07,05,17,14,17.70
2011,07,05,17,15,11.30
2011,07,05,17,16,11.30
2011,07,05,17,17,19.30
2011,07,05,17,18,11.30
2011,07,05,17,19,14.50
2011,07,05,17,20,11.30
2011,07,05,17,21,12.90
2011,07,05,17,22,9.60
2011,07,05,17,23,12.90
2011,07,05,17,24,11.30
2011,07,05,17,25,16.10
2011,07,05,17,26,16.10
2011,07,05,17,27,12.90
2011,07,05,17,28,14.50
2011,07,05,17,29,14.50
2011,07,05,17,30,9.60
2011,07,05,17,31,11.30
2011,07,05,17,32,11.30
2011,07,05,17,33,11.30
2011,07,05,17,34,11.30
2011,07,05,17,35,8.10
2011,07,05,17,36,12.90
2011,07,05,17,37,14.50
2011,07,05,17,38,9.60
2011,07,05,17,39,11.30
2011,07,05,17,40,11.30
2011,07,05,17,41,14.50
2011,07,05,17,42,11.30
2011,07,05,17,43,6.40
2011,07,05,17,44,8.10
2011,07,05,17,45,8.10
2011,07,05,17,46,6.40
2011,07,05,17,47,8.10
2011,07,05,17,48,9.60
2011,07,05,17,49,9.60
2011,07,05,17,50,9.60
2011,07,05,17,51,11.30
2011,07,05,17,52,11.30
2011,07,05,17,53,11.30
2011,07,05,17,54,9.60
2011,07,05,17,55,11.30
2011,07,05,17,56,9.60
2011,07,05,17,57,14.50
2011,07,05,17,58,12.90
2011,07,05,17,59,16.10
2011,07,05,18,00,16.10
2011,07,05,18,01,6.40
2011,07,05,18,02,14.50
2011,07,05,18,03,9.60
2011,07,05,18,04,11.30
2011,07,05,18,05,11.30
2011,07,05,18,06,8.10
2011,07,05,18,07,14.50
2011,07,05,18,08,14.50
2011,07,05,18,09,16.10
2011,07,05,18,10,11.30
2011,07,05,18,11,11.30
2011,07,05,18,12,11.30
2011,07,05,18,13,11.30
2011,07,05,18,14,9.60
2011,07,05,18,15,11.30
2011,07,05,18,16,11.30
2011,07,05,18,17,11.30
2011,07,05,18,18,9.60
2011,07,05,18,19,8.10
2011,07,05,18,20,8.10
2011,07,05,18,21,8.10
2011,07,05,18,22,9.60
2011,07,05,18,23,9.60
2011,07,05,18,24,8.10
2011,07,05,18,25,11.30
2011,07,05,18,26,8.10
2011,07,05,18,27,9.60
2011,07,05,18,28,8.10
2011,07,05,18,29,6.40
2011,07,05,18,30,11.30
2011,07,05,18,31,6.40
2011,07,05,18,32,8.10
2011,07,05,18,33,4.80
2011,07,05,18,34,8.10
2011,07,05,18,35,8.10
2011,07,05,18,36,8.10
2011,07,05,18,37,8.10
2011,07,05,18,38,6.40
2011,07,05,18,39,4.80
2011,07,05,18,40,9.60
2011,07,05,18,41,3.20
2011,07,05,18,42,3.20
2011,07,05,18,43,4.80
2011,07,05,18,44,8.10
2011,07,05,18,45,6.40
2011,07,05,18,46,9.60
2011,07,05,18,47,8.10
2011,07,05,18,48,8.10
2011,07,05,18,49,11.30
2011,07,05,18,50,8.10
2011,07,05,18,51,6.40
2011,07,05,18,52,8.10
2011,07,05,18,53,8.10
2011,07,05,18,54,6.40
2011,07,05,18,55,4.80
2011,07,05,18,56,3.20
2011,07,05,18,57,4.80
2011,07,05,18,58,4.80
2011,07,05,18,59,3.20
2011,07,05,19,00,4.80
2011,07,05,19,01,3.20
2011,07,05,19,02,6.40
2011,07,05,19,03,3.20
2011,07,05,19,04,4.80
2011,07,05,19,05,4.80
2011,07,05,19,06,3.20
2011,07,05,19,07,6.40
2011,07,05,19,08,4.80
2011,07,05,19,09,6.40
2011,07,05,19,10,3.20
2011,07,05,19,11,3.20
2011,07,05,19,12,6.40
2011,07,05,19,13,4.80
2011,07,05,19,14,4.80
2011,07,05,19,15,4.80
2011,07,05,19,16,6.40
2011,07,05,19,17,3.20
2011,07,05,19,18,1.60
2011,07,05,19,19,3.20
2011,07,05,19,20,3.20
2011,07,05,19,21,6.40
2011,07,05,19,22,11.30
2011,07,05,19,23,6.40
2011,07,05,19,24,4.80
2011,07,05,19,25,4.80
2011,07,05,19,26,8.10
2011,07,05,19,27,9.60
2011,07,05,19,28,6.40
2011,07,05,19,29,6.40
2011,07,05,19,30,4.80
2011,07,05,19,31,6.40
2011,07,05,19,32,8.10
2011,07,05,19,33,6.40
2011,07,05,19,34,4.80
2011,07,05,19,35,6.40
2011,07,05,19,36,3.20
2011,07,05,19,37,3.20
2011,07,05,19,38,4.80
2011,07,05,19,39,6.40
2011,07,05,19,40,6.40
2011,07,05,19,41,3.20
2011,07,05,19,42,6.40
2011,07,05,19,43,3.20
2011,07,05,19,44,4.80
2011,07,05,19,45,6.40
2011,07,05,19,46,3.20
2011,07,05,19,47,6.40
2011,07,05,19,48,4.80
2011,07,05,19,49,3.20
2011,07,05,19,50,4.80
2011,07,05,19,51,6.40
2011,07,05,19,52,6.40
2011,07,05,19,53,4.80
2011,07,05,19,54,6.40
2011,07,05,19,55,3.20
2011,07,05,19,56,4.80
2011,07,05,19,57,3.20
2011,07,05,19,58,4.80
2011,07,05,19,59,3.20
2011,07,05,20,00,1.60
2011,07,05,20,01,1.60
2011,07,05,20,02,3.20
2011,07,05,20,03,3.20
2011,07,05,20,04,3.20
2011,07,05,20,05,1.60
2011,07,05,20,06,1.60
2011,07,05,20,07,1.60
2011,07,05,20,08,1.60
2011,07,05,20,09,4.80
2011,07,05,20,10,3.20
2011,07,05,20,11,1.60
2011,07,05,20,12,1.60
2011,07,05,20,13,3.20
2011,07,05,20,14,3.20
2011,07,05,20,15,4.80
2011,07,05,20,16,1.60
2011,07,05,20,17,1.60
2011,07,05,20,18,1.60
2011,07,05,20,19,3.20
2011,07,05,20,20,4.80
2011,07,05,20,21,1.60
2011,07,05,20,22,1.60
2011,07,05,20,23,1.60
2011,07,05,20,24,4.80
2011,07,05,20,25,4.80
2011,07,05,20,26,4.80
2011,07,05,20,27,4.80
2011,07,05,20,28,4.80
2011,07,05,20,29,3.20
2011,07,05,20,30,1.60
2011,07,05,20,31,3.20
2011,07,05,20,32,4.80
2011,07,05,20,33,4.80
2011,07,05,20,34,1.60
2011,07,05,20,35,3.20
2011,07,05,20,36,3.20
2011,07,05,20,37,3.20
2011,07,05,20,38,3.20
2011,07,05,20,39,1.60
2011,07,05,20,40,1.60
2011,07,05,20,41,1.60
2011,07,05,20,42,4.80
2011,07,05,20,43,4.80
2011,07,05,20,44,4.80
2011,07,05,20,45,3.20
2011,07,05,20,46,6.40
2011,07,05,20,47,3.20
2011,07,05,20,48,3.20
2011,07,05,20,49,1.60
2011,07,05,20,50,1.60
2011,07,05,20,51,3.20
2011,07,05,20,52,4.80
2011,07,05,20,53,3.20
2011,07,05,20,54,3.20
2011,07,05,20,55,4.80
2011,07,05,20,56,4.80
2011,07,05,20,57,4.80
2011,07,05,20,58,4.80
2011,07,05,20,59,4.80
2011,07,05,21,00,3.20
2011,07,05,21,01,1.60
2011,07,05,21,02,1.60
2011,07,05,21,03,3.20
2011,07,05,21,04,4.80
2011,07,05,21,05,3.20
2011,07,05,21,06,3.20
2011,07,05,21,07,3.20
2011,07,05,21,08,3.20
2011,07,05,21,09,1.60
2011,07,05,21,10,3.20
2011,07,05,21,11,1.60
2011,07,05,21,20,1.60
2011,07,05,21,23,1.60
2011,07,05,21,56,1.60
2011,07,05,21,57,1.60
2011,07,05,22,04,3.20
2011,07,05,22,20,1.60
2011,07,05,22,21,1.60
2011,07,05,22,22,1.60
2011,07,05,22,23,1.60
2011,07,05,22,24,1.60
2011,07,05,22,26,1.60
2011,07,05,22,27,1.60
2011,07,05,22,28,1.60
2011,07,05,22,45,1.60
2011,07,05,22,48,1.60
2011,07,05,22,49,3.20
2011,07,05,22,51,1.60
2011,07,05,22,53,4.80
2011,07,05,22,54,4.80
2011,07,05,22,55,6.40
2011,07,05,22,57,1.60
2011,07,05,22,58,1.60
2011,07,05,22,59,1.60
2011,07,05,23,01,1.60
2011,07,05,23,02,1.60
2011,07,05,23,03,8.10
2011,07,05,23,04,3.20
2011,07,05,23,08,1.60
2011,07,05,23,09,4.80
2011,07,05,23,10,6.40
2011,07,05,23,11,6.40
2011,07,05,23,12,4.80
2011,07,05,23,13,6.40
2011,07,05,23,14,3.20
2011,07,05,23,15,4.80
2011,07,05,23,16,4.80
2011,07,05,23,17,4.80
2011,07,05,23,21,1.60
2011,07,05,23,28,1.60
2011,07,05,23,32,1.60
